"Pseudo-MPEC" for TF26D27

Created 2026 Apr 17 11:35:14 UT using Find_Orb

Click here for an explanation of pseudo-MPECs

 
 Astrometry: 
     TF26D27* C2026 04 09.33774414 32 19.791+05 30 31.22   ~498Z 20.34GVNEOCPU74
     TF26D27  C2026 04 09.34101814 32 19.056+05 30 31.11   ~498Z 20.34GVNEOCPU74

Station data:
(U74) JPL SynTrack Robotic Telescope 2, Auberry  (N37.070341 W119.412800)
   US/California.  Observers N. Saini, C. Zhai, R. Trahan, M. Zhan, M. Shao.
   0.36-m f/2.2 Schmidt.

Orbital elements:  TF26D27
   Perihelion 2026 Jan 17.133116 +/- 136 TT =  3:11:41.1 (JD 2461057.633116)
Epoch 2026 Apr  9.0 TT = JDT 2461139.5   Earth MOID: 0.1876   Ju: 0.2269
M  14.285069268 +/- 80              (J2000 ecliptic)             AutoNEOCP
n   0.174491424 +/- 0.263           Peri.   18.598440 +/- 60
a   3.171660237 +/- 3.19            Node    60.207250 +/- 41
e   0.86449263 +/- 0.221            Incl.   12.725060 +/- 41
P   5.64846                H 19.80  G  0.15   U 11.9  SR
q 0.429783322 +/- 0.55    Q 5.913537151 +/- 18.8
From 2 observations 2026 Apr. 9 (4.7 min); mean residual 0".00
Residuals in arcseconds: 
260409 U74  .00   .00     260409 U74  .00   .00     

Ephemerides (geocentric):
Date (UTC) HH   RA             Dec           delta  r     elong  mag " sig PA
---- --------  ------------   ------------  ------ ------ -----  --- --------
2026 04 17 12  14 05 24.572   +05 15 37.26  .71588 1.7016 163.1 20.9  36d  94
2026 04 17 13  14 05 17.276   +05 15 29.79  .71640 1.7022 163.1 20.9  36d  94
2026 04 17 14  14 05 09.990   +05 15 22.30  .71691 1.7027 163.2 20.9  36d  94
2026 04 17 15  14 05 02.713   +05 15 14.78  .71743 1.7033 163.2 20.9  36d  94
2026 04 17 16  14 04 55.446   +05 15 07.23  .71794 1.7038 163.2 20.9  36d  94
2026 04 17 17  14 04 48.189   +05 14 59.66  .71846 1.7044 163.2 20.9  37d  94
2026 04 17 18  14 04 40.941   +05 14 52.06  .71898 1.7049 163.2 20.9  37d  94
2026 04 17 19  14 04 33.703   +05 14 44.43  .71950 1.7055 163.2 20.9  37d  94
2026 04 17 20  14 04 26.475   +05 14 36.78  .72002 1.7060 163.2 20.9  37d  94
2026 04 17 21  14 04 19.257   +05 14 29.10  .72053 1.7066 163.2 20.9  37d  94
2026 04 17 22  14 04 12.048   +05 14 21.40  .72105 1.7071 163.3 20.9  37d  94
2026 04 17 23  14 04 04.849   +05 14 13.67  .72157 1.7077 163.3 20.9  37d  94
2026 04 18 00  14 03 57.660   +05 14 05.91  .72210 1.7082 163.3 20.9  37d  94
2026 04 18 01  14 03 50.480   +05 13 58.13  .72262 1.7087 163.3 20.9  37d  94
2026 04 18 02  14 03 43.310   +05 13 50.32  .72314 1.7093 163.3 20.9  37d  94
2026 04 18 03  14 03 36.150   +05 13 42.49  .72366 1.7098 163.3 20.9  37d  94
2026 04 18 04  14 03 28.999   +05 13 34.63  .72418 1.7104 163.3 20.9  37d  94
2026 04 18 05  14 03 21.859   +05 13 26.74  .72471 1.7109 163.3 20.9  37d  94
2026 04 18 06  14 03 14.727   +05 13 18.83  .72523 1.7115 163.3 20.9  37d  94
2026 04 18 07  14 03 07.606   +05 13 10.90  .72576 1.7120 163.3 20.9  37d  94
2026 04 18 08  14 03 00.494   +05 13 02.94  .72628 1.7126 163.3 20.9  38d  94
2026 04 18 09  14 02 53.392   +05 12 54.95  .72681 1.7131 163.3 20.9  38d  94
2026 04 18 10  14 02 46.300   +05 12 46.93  .72733 1.7137 163.4 20.9  38d  94
2026 04 18 11  14 02 39.217   +05 12 38.90  .72786 1.7142 163.4 20.9  38d  94
2026 04 18 12  14 02 32.144   +05 12 30.83  .72839 1.7148 163.4 20.9  38d  94
2026 04 18 13  14 02 25.081   +05 12 22.74  .72891 1.7153 163.4 20.9  38d  94
2026 04 18 14  14 02 18.028   +05 12 14.63  .72944 1.7158 163.4 20.9  38d  94
2026 04 18 15  14 02 10.984   +05 12 06.49  .72997 1.7164 163.4 20.9  38d  94
2026 04 18 16  14 02 03.950   +05 11 58.32  .73050 1.7169 163.4 20.9  38d  94
2026 04 18 17  14 01 56.925   +05 11 50.13  .73103 1.7175 163.4 20.9  38d  94
2026 04 18 18  14 01 49.910   +05 11 41.92  .73156 1.7180 163.4 20.9  38d  94
2026 04 18 19  14 01 42.905   +05 11 33.68  .73209 1.7186 163.4 20.9  38d  94
2026 04 18 20  14 01 35.910   +05 11 25.41  .73262 1.7191 163.4 20.9  38d  94
2026 04 18 21  14 01 28.924   +05 11 17.12  .73315 1.7197 163.4 20.9  38d  94
2026 04 18 22  14 01 21.948   +05 11 08.80  .73368 1.7202 163.4 20.9  38d  94
2026 04 18 23  14 01 14.981   +05 11 00.46  .73422 1.7207 163.4 20.9  38d  94
2026 04 19 00  14 01 08.024   +05 10 52.10  .73475 1.7213 163.4 20.9  38d  94
2026 04 19 01  14 01 01.077   +05 10 43.71  .73528 1.7218 163.4 20.9  38d  94
2026 04 19 02  14 00 54.140   +05 10 35.29  .73582 1.7224 163.4 20.9  38d  94
2026 04 19 03  14 00 47.212   +05 10 26.85  .73635 1.7229 163.4 20.9  39d  94
2026 04 19 04  14 00 40.294   +05 10 18.39  .73689 1.7235 163.4 20.9  39d  94
2026 04 19 05  14 00 33.386   +05 10 09.90  .73742 1.7240 163.4 20.9  39d  94
2026 04 19 06  14 00 26.487   +05 10 01.38  .73796 1.7245 163.4 21.0  39d  94
2026 04 19 07  14 00 19.598   +05 09 52.84  .73849 1.7251 163.4 21.0  39d  94
2026 04 19 08  14 00 12.718   +05 09 44.28  .73903 1.7256 163.4 21.0  39d  94
2026 04 19 09  14 00 05.848   +05 09 35.69  .73957 1.7262 163.4 21.0  39d  94
2026 04 19 10  13 59 58.988   +05 09 27.08  .74011 1.7267 163.4 21.0  39d  94
2026 04 19 11  13 59 52.138   +05 09 18.44  .74065 1.7273 163.4 21.0  39d  94